Regional Weather Roundup
Issued by NWS Sterling, VA

Home | Current Version | Previous Version | Graphics & Text | Print | Product List | Glossary On
Versions: 1 2 3 4 5 6 7 8 9 10 11 12 13 14 15 16 17 18 19 20 21 22 23 24 25 26
000
ASUS41 KLWX 170110
RWRLWX

REGIONAL WEATHER ROUNDUP
NATIONAL WEATHER SERVICE BALTIMORE MD/WASHINGTON DC
800 PM EST FRI FEB 16 2018

Note: "FAIR" indicates few or no clouds below 12,000 feet
with no significant weather and/or obstructions to visibility.
 TC=TEMPERATURE CELSIUS

 * =Non NWS site. Station does not report precipitation (e.g. rain,
    snow, etc.), thunder, or fog.

DCZ001-MDZ009-015-VAZ040>042-051-053>054-170200-
WASHINGTON METRO

CITY           SKY/WX    TMP DP  RH WIND       PRES   REMARKS
WASHINGTON NAT CLOUDY    48  32  53 NW20G31   30.10R
DULLES         MOCLDY    44  33  65 NW18      30.12R
ANDREWS AFB    MOCLDY    46  31  55 NW20G29   30.07R
FT BELVOIR     CLOUDY    48  31  53 NW16G28   30.10R
QUANTICO       FAIR      50  34  54 N20G33    30.09R
COLLEGE PARK*  FAIR      46  32  58 NW13      30.10R
LEESBURG*      CLOUDY    45  34  65 N15       30.14R
MANASSAS*      FAIR      45  33  63 NW22G30   30.11R
GAITHERSBURG*  FAIR      42  31  64 NW17      30.10R WCI  34

$$

MDZ006>007-011-014-170200-
BALTIMORE METRO

CITY           SKY/WX    TMP DP  RH WIND       PRES   REMARKS
BWI AIRPORT    CLOUDY    45  32  60 NW18G26   30.07R
MD SCIENCE CTR   N/A     47  32  56 MISG      30.07R
MARTIN STATE   CLOUDY    46  36  66 NW20G26   30.07R
ANNAPOLIS      FAIR      49  34  56 NW16G29   30.06R
FORT MEADE*    FAIR      45  32  61 NW16G23   30.11R

$$

MDZ012-015-019>023-170200-
MARYLAND EASTERN SHORE

CITY           SKY/WX    TMP DP  RH WIND       PRES   REMARKS
OCEAN CITY     MOCLDY    53  45  74 NW10      29.98R
SALISBURY      FAIR      52  43  71 NW17      29.99R
BAY BRIDGE AP* FAIR      46  34  61 NW17      30.05R
CAMBRIDGE*       N/A     52  37  58 NW12G22   30.01R
EASTON*        CLOUDY    50  36  57 N14G30    30.06R

$$

MDZ017>025-170200-
SOUTHERN MARYLAND

CITY           SKY/WX    TMP DP  RH WIND       PRES   REMARKS
PATUXENT RIVER MOCLDY    51  38  60 NW18G29   30.02R
ST INIGOES     FAIR      54  39  57 NW9G17    30.01R
LEONARDTOWN*   FAIR      52  36  54 NW10G17   30.04R

$$

MDZ003>005-170200-
NORTH CENTRAL MARYLAND

CITY           SKY/WX    TMP DP  RH WIND       PRES   REMARKS
FREDERICK*     CLEAR     34  25  69 NW12G21   30.13R WCI  25
HAGERSTOWN APT FAIR      38  27  64 NW18      30.11R WCI  28
WESTMINSTER*   MOCLDY    41  30  65 N12G18    30.08R WCI  34

$$

MDZ501>502-170200-
WESTERN MARYLAND

CITY           SKY/WX    TMP DP  RH WIND       PRES   REMARKS
OAKLAND*         N/A     25  25 100 W10G17    30.08S WCI  15
CUMBERLAND*    MOCLDY    37  27  65 N14G20    30.22R WCI  29

$$

VAZ025>031-170200-
SHENANDOAH VALLEY

CITY           SKY/WX    TMP DP  RH WIND       PRES   REMARKS
WINCHESTER*    FAIR      37  28  70 NW15G26   30.14R WCI  28
FRONT ROYAL*   FAIR      41  32  70 NW9G16    30.12R
LURAY*         CLOUDY    45  32  61 N10       30.11R
NEW MARKET*    CLOUDY    43  31  60 N5        30.13R
STAUNTON*      CLOUDY    47  34  61 N6        30.11R
WAYNESBORO*    MOCLDY    47  34  61 NW6       30.08R

$$

WVZ021-048>050-054>055-170200-
EASTERN WEST VIRGINIA PANHANDLE

CITY           SKY/WX    TMP DP  RH WIND       PRES   REMARKS
MARTINSBURG    MOCLDY    40  29  64 N5        30.13R
PETERSBURG*    CLOUDY    39  31  72 NW13      30.17R WCI  32

$$

VAZ036>039-050-170200-
CENTRAL FOOTHILLS

CITY           SKY/WX    TMP DP  RH WIND       PRES   REMARKS
CHARLOTTESVILL FAIR      52  37  56 N9        30.07R
CULPEPER*      FAIR      48  32  53 N10G20    30.10R
ORANGE*        FAIR      50  36  57 NW14G23   30.08R
GORDONSVILLE*  FAIR      52  39  61 NW3G17    30.07R
WARRENTON*     FAIR      47  33  57 N18G30    30.09R

$$

VAZ055>057-170200-
NORTH AND CENTRAL PIEDMONT

CITY           SKY/WX    TMP DP  RH WIND       PRES   REMARKS
FREDERICKSBRG* FAIR      51  39  63 N15G21    30.06R
STAFFORD*      FAIR      49  38  65 NW21G29   30.11R

$$

NCZ024-NYZ072-PAZ021-071-VAZ022-071-170200-
OTHER REGIONAL OBSERVATIONS

CITY           SKY/WX    TMP DP  RH WIND       PRES   REMARKS
NEW YORK CITY  FAIR      42  26  53 NW13G25   29.99R
PHILADELPHIA   MOCLDY    46  32  58 N21G30    30.01R
PITTSBURGH     CLOUDY    31  21  66 N13       30.22R WCI  21
ROANOKE        CLOUDY    51  38  60 NW13G24   30.12R
RICHMOND       LGT RAIN  54  48  80 N12       30.01R
RALEIGH        LGT RAIN  58  56  93 CALM      30.05R

$$

ANZ530>537-170200-
MARINE OBSERVATIONS

STATION/POSITION TIME  TEMP    WIND        PRES
                       AIR SEA DIR/SP/G
                 (UTC) (F)     (DEG/KT/KT) (MB)
THOMAS PT LIGHT  0100   48 39  340/ 14/ 17   N/A
BALT KEY BRIDGE  0042   46     310/ 19/ 23 1017.3R
COVE POINT       0042   49     350/ 21/ 23 1016.9R
LEWISETTA        0042   52 45  350/ 11/ 16 1016.4R
SOLOMONS ISLAND  0042   52 40  320/ 17/ 24 1016.2R
PINEY POINT      0042             CALM       N/A

$$





USA.gov is the U.S. government's official web portal to all federal, state and local government web resources and services.